Regional Weather Roundup
Issued by NWS Cleveland, OH

Home | Current Version | Previous Version | Graphics & Text | Print | Product List | Glossary On
Versions: 1 2 3 4 5 6 7 8 9 10 11 12 13 14 15 16 17 18 19 20 21 22 23 24 25 26 27 28 29 30 31 32 33 34 35 36 37 38 39 40 41 42 43 44 45 46 47 48 49 50
203
ASUS41 KCLE 282310
RWRCLE
OHIO REGIONAL WEATHER ROUNDUP
NATIONAL WEATHER SERVICE WILMINGTON, OH
700 PM EDT SUN AUG 28 2016

NOTE: "FAIR" INDICATES FEW OR NO CLOUDS BELOW 12,000 FEET WITH NO
SIGNIFICANT WEATHER AND/OR OBSTRUCTIONS TO VISIBILITY.

OHZ001>008-015>018-024>027-034-035-043-044-290000-
   NORTHWEST OHIO

CITY           SKY/WX    TMP DP  RH WIND       PRES   REMARKS
DEFIANCE       FAIR      77  69  76 VRB5      30.15F
FINDLAY        FAIR      83  66  56 N9        30.16S
TOLEDO EXPRESS FAIR      77  73  87 CALM      30.17S
TOLEDO EXEC    FAIR      81  73  76 NW3       30.17S
LIMA           PTSUNNY   80  72  76 N7        30.18R THUNDER
$$

OHZ009>014-019>023-028>033-038-089-290000-
   NORTHEAST OHIO

CITY           SKY/WX    TMP DP  RH WIND       PRES   REMARKS
CLE-HOPKINS    PTSUNNY   84  72  67 N10       30.17R
CLE-LAKEFRONT  FAIR      81  75  82 NW8       30.14R
CUY CO. ARPT   PTSUNNY   82  75  78 N10       30.17R
LORAIN-ELYRIA  FAIR      75  68  78 NW5       30.16R
ASHTABULA      FAIR      79  73  82 N3        30.16S
AKRON-CANTON   PTSUNNY   72  64  76 SE18      30.18F
WOOSTER        FAIR      74  69  85 CALM      30.18F
MANSFIELD      FAIR      82  69  64 NE6       30.19S
YOUNGSTOWN     PTSUNNY   81  70  69 N7        30.16S
$$

OHZ042-051>053-060>062-070>072-077>081-290000-
  SOUTHWEST OHIO

CITY           SKY/WX    TMP DP  RH WIND       PRES   REMARKS
CINC-COVINGTON TSTM      73  68  83 SE16G41   30.15R
CINC-LUNKEN    TSTM      82  77  84 SW17      30.14R HX  90
HAMILTON       FAIR      90  71  53 N6        30.14R HX  96
DAYTON         PTSUNNY   87  71  58 N6        30.18R HX  93
WRIGHT-PAT AFB MOSUNNY   88  71  55 N6        30.15R HX  94
DAYTON GENERAL PTSUNNY   78  61  55 NE10      30.16R THUNDER
WILMINGTON     FAIR      85  74  69 CALM      30.16R HX  92
$$

OHZ036-037-039>041-045>050-054>059-063>069-073>076-082>088-290000-
  CENTRAL AND SOUTHEAST OHIO

CITY           SKY/WX    TMP DP  RH WIND       PRES   REMARKS
COLUMBUS       TSTM      73  67  81 SW14      30.16R
OSU AIRPORT    PTSUNNY   84  68  58 VRB3      30.14F
BOLTON FIELD   MOSUNNY   88  73  62 NW5       30.14F HX  96
RICKENBACK AFB FAIR      88  71  57 CALM      30.14R HX  93
NEWARK         FAIR      83  72  69 NW3       30.13F
MARION         FAIR      81  70  69 NE13      30.17S
LANCASTER      FAIR      89  73  59 N3        30.14F HX  97
ZANESVILLE     FAIR      88  71  57 NW9       30.13F HX  94
NEW PHILLY     TSTM      74  67  78 NE9       30.19R
$$




USA.gov is the U.S. government's official web portal to all federal, state and local government web resources and services.